Regional Weather Roundup
Issued by NWS

Home | Current Version | Previous Version | Graphics & Text | Print | Product List | Glossary On
Versions: 1 2 3 4 5 6 7 8 9 10 11 12 13 14 15 16 17 18 19 20 21 22 23 24 25 26 27 28 29 30 31 32 33 34 35 36 37 38 39 40 41 42 43 44 45 46 47 48 49 50
000
ASUS43 KTOP 231608
RWRKS

WEATHER ROUNDUP FOR KANSAS
NATIONAL WEATHER SERVICE GOODLAND KS
1100 AM CDT WED MAY 23 2018

NOTE:  "FAIR" INDICATES FEW OR NO CLOUDS BELOW 12,000 FEET WITH NO
SIGNIFICANT WEATHER AND/OR OBSTRUCTIONS TO VISIBILITY.

KSZ001>006-013>018-027>032-041>047-231700-
NORTHWEST KANSAS

CITY           SKY/WX    TMP DP  RH WIND       PRES   REMARKS
GOODLAND       CLOUDY    70  54  56 SW17G24   30.01S
HAYS           CLOUDY    78  61  55 S14       30.02F
HILL CITY      CLOUDY    78  57  48 S9G20     29.99F
RUSSELL        MOSUNNY   79  63  57 S17       30.03S
$$

KSZ061>065-074>080-084>089-231700-
SOUTHWEST KANSAS

CITY           SKY/WX    TMP DP  RH WIND       PRES   REMARKS
DODGE CITY     CLOUDY    78  57  48 SE14      30.03F
ELKHART        PTSUNNY   73  64  73 S12       30.07S
GARDEN CITY    CLOUDY    72  58  61 S13       30.03S
GREAT BEND     CLOUDY    79  66  64 S12       30.05F
LIBERAL        CLOUDY    69  61  75 SE8       30.07S
PRATT          CLOUDY    77  65  65 S8        30.07F
$$

KSZ066>073-081>083-090>101-231700-
SOUTHEAST KANSAS

CITY           SKY/WX    TMP DP  RH WIND       PRES   REMARKS
CHANUTE        SUNNY     80  72  76 VRB3      30.12R
COFFEYVILLE    MOSUNNY   81  70  69 VRB5      30.10S
HUTCHINSON     PTSUNNY   81  68  64 S12       30.07F
MEDICINE LODGE   N/A     81  67  62 SW7       30.05F
NEWTON         PTSUNNY   81  67  62 SW15G23   30.10S
PARSONS        SUNNY     81  71  71 VRB6      30.12S
WICHITA INTL   MOSUNNY   82  69  64 S10       30.08S
WICHITA JABRA  SUNNY     81  69  67 S9        30.09S
WICHITA MCCONL MOSUNNY   80  68  66 SW7       30.09S
WINFIELD       MOSUNNY   81  71  71 SW7       30.10F
$$

KSZ007>012-019>026-033>040-048>060-102>105-231700-
NORTHEAST KANSAS

CITY           SKY/WX    TMP DP  RH WIND       PRES   REMARKS
CONCORDIA      SUNNY     82  65  56 S18G25    30.06S
EMPORIA        SUNNY     81  70  69 S6        30.10S
LAWRENCE       SUNNY     84  70  62 S8        30.10R
MANHATTAN      MOSUNNY   85  68  56 S12       30.07S
MARYSVILLE     MOSUNNY   82  68  61 SW12      30.07F
OLATHE IND     SUNNY     83  68  60 S6        30.12S
OLATHE EXE     SUNNY     80  69  69 S5        30.12R
SALINA         MOSUNNY   85  68  56 S15       30.06F
TOPEKA BILLARD SUNNY     83  71  67 S8        30.09S
TOPEKA FORBES  SUNNY     83  70  64 S8        30.10R
$$




USA.gov is the U.S. government's official web portal to all federal, state and local government web resources and services.